Location: La Brionne
(46.1728°N, 1.7849°E)
Time: 17:11:43
(UTC+00:00)

Cosmos 2233 Rocket - Visible Passes

Search period start: 21 October 2021 00:00
Search period end: 31 October 2021 00:00
Orbit: 952 x 991 km, 82.9° (Epoch: 20 October)

Date Brightness Start Highest point End Pass type
(mag) Time Alt. Az. Time Alt. Az. Time Alt. Az.
23 Oct 6.7 05:35:39 10° NE 05:38:13 13° ENE 05:40:48 10° E visible
26 Oct 7.0 05:05:02 10° NE 05:05:35 10° ENE 05:06:09 10° ENE visible
26 Oct 6.4 20:30:10 11° N 20:30:10 11° N 20:30:17 10° N visible
27 Oct 6.5 05:26:31 10° NNE 05:30:34 18° ENE 05:34:35 10° ESE visible
27 Oct 6.5 20:54:07 11° N 20:54:07 11° N 20:54:26 10° N visible
28 Oct 6.0 05:50:01 10° N 05:55:19 29° ENE 06:00:38 10° SE visible
28 Oct 6.2 19:33:27 10° NNE 19:33:27 10° NNE 19:33:28 10° NNE visible
28 Oct 6.6 21:18:01 11° NNW 21:18:01 11° NNW 21:18:19 10° NNW visible
29 Oct 6.1 19:57:17 13° N 19:57:17 13° N 19:57:55 10° N visible
30 Oct 6.6 04:54:41 10° NNE 04:57:59 15° ENE 05:01:16 10° E visible
30 Oct 6.1 20:21:02 16° N 20:21:02 16° N 20:22:09 10° N visible
